User: anonymous   Login
Location: Oshawa
(43.9000°N, 78.8670°W)
Time: 23:35:14
(UTC-05:00)
Language:

Altair - Orbit

View from above orbital plane
View from above orbital plane
View from above satellite
View from above satellite

Ground track
Ground track

The orbit data is extracted from the following two-line orbital elements,

1 00050U 60009B   16336.87033067 -.00000046  00000-0  38761-3 0  9992
2 00050  47.2281 176.0822 0114156  70.4973 290.8106 12.20099745512749
Epoch (UTC): 01 December 2016 20:53:16
Eccentricity: 0.0114156
inclination: 47.2281°
perigee height: 1501 km
apogee height: 1683 km
right ascension of ascending node: 176.0822°
argument of perigee: 70.4973°
revolutions per day: 12.20099745
mean anomaly at epoch: 290.8106°
orbit number at epoch: 51274

The dashed part of the orbit path shows where the satellite is in the earth's shadow,  

DLR